EWG686V EDDF-LEPA

Flight info

Callsign EWG686V
Flight time 1h 50m
Altitude 35000
Route ANEKI2L/18 ANEKI Y163 HERBI Y164 MOPAN DCT LUTIX DCT BENOT DCT NEMOS DCT GEVEA DCT INCUS DCT BALSI DCT RETNO DCT TUPOX DCT MTG/N0451F370 DCT DIVKO DCT VATIR DCT PIVUS N852 VERSO L129 LUNIK
Aircraft A321/M-SDE3FGHIRWY/LB1

Departure

Time 2026-05-04 14:00
Airport Frankfurt Main Airport (EDDF)

Arrival

Time 2026-05-04 15:50
Airport Palma de Mallorca Airport (LEPA)
Time Latitude Longitude Altitude Speed Heading
2026-05-04 13:26 50.04608 8.56772 356 ft 0 kts 295°
2026-05-04 13:36 50.04607 8.56772 356 ft 0 kts 295°
2026-05-04 13:41 50.04607 8.56773 356 ft 0 kts 295°
2026-05-04 13:47 50.04604 8.56784 356 ft 2 kts 292°
2026-05-04 13:48 50.04597 8.56808 363 ft 2 kts 293°
2026-05-04 13:48 50.04591 8.56831 363 ft 2 kts 291°
2026-05-04 13:48 50.04585 8.56855 363 ft 2 kts 288°
2026-05-04 13:48 50.04581 8.56880 360 ft 2 kts 271°
2026-05-04 13:49 50.04585 8.56902 363 ft 0 kts 198°
2026-05-04 13:49 50.04600 8.56910 365 ft 2 kts 192°
2026-05-04 13:49 50.04616 8.56915 363 ft 2 kts 192°
2026-05-04 13:49 50.04632 8.56921 364 ft 2 kts 197°
2026-05-04 13:50 50.04647 8.56929 358 ft 2 kts 202°
2026-05-04 13:50 50.04653 8.56934 360 ft 0 kts 202°
2026-05-04 13:51 50.04645 8.56929 358 ft 5 kts 199°
2026-05-04 13:51 50.04582 8.56902 363 ft 12 kts 193°
2026-05-04 13:52 50.04449 8.56804 363 ft 12 kts 242°
2026-05-04 13:52 50.04415 8.56674 359 ft 14 kts 250°
2026-05-04 13:52 50.04379 8.56521 362 ft 16 kts 250°
2026-05-04 13:53 50.04338 8.56348 358 ft 18 kts 250°
2026-05-04 13:53 50.04300 8.56190 358 ft 9 kts 249°
2026-05-04 13:53 50.04271 8.56071 356 ft 14 kts 249°
2026-05-04 13:54 50.04195 8.55754 359 ft 17 kts 250°
2026-05-04 13:54 50.04151 8.55571 354 ft 19 kts 250°
2026-05-04 13:54 50.04060 8.55188 356 ft 19 kts 249°
2026-05-04 13:55 50.04012 8.54990 354 ft 20 kts 250°
2026-05-04 13:55 50.03905 8.54542 355 ft 24 kts 250°
2026-05-04 13:55 50.03830 8.54303 353 ft 25 kts 234°
2026-05-04 13:56 50.03772 8.54103 350 ft 21 kts 249°
2026-05-04 13:56 50.03720 8.53887 352 ft 22 kts 250°
2026-05-04 13:56 50.03604 8.53415 336 ft 25 kts 250°
2026-05-04 13:57 50.03542 8.53158 335 ft 26 kts 249°
2026-05-04 13:57 50.03484 8.52917 335 ft 22 kts 248°
2026-05-04 13:58 50.03444 8.52770 333 ft 3 kts 247°
2026-05-04 13:58 50.03394 8.52627 331 ft 17 kts 223°
2026-05-04 13:58 50.03278 8.52594 332 ft 18 kts 179°
2026-05-04 13:59 50.03127 8.52596 335 ft 40 kts 180°
2026-05-04 13:59 50.02592 8.52602 335 ft 111 kts 179°
2026-05-04 13:59 50.00467 8.52613 924 ft 168 kts 181°
2026-05-04 14:00 49.99272 8.52649 1630 ft 175 kts 181°
2026-05-04 14:00 49.96791 8.52891 2938 ft 187 kts 179°
2026-05-04 14:00 49.95425 8.53019 3206 ft 205 kts 181°
2026-05-04 14:01 49.93949 8.53120 3451 ft 223 kts 181°
2026-05-04 14:01 49.92373 8.53205 3934 ft 233 kts 181°
2026-05-04 14:01 49.89071 8.53328 5260 ft 239 kts 181°
2026-05-04 14:02 49.87422 8.53409 6034 ft 235 kts 179°
2026-05-04 14:02 49.85791 8.53527 6747 ft 234 kts 178°
2026-05-04 14:02 49.84171 8.53669 7422 ft 232 kts 178°
2026-05-04 14:02 49.82551 8.53810 8022 ft 234 kts 178°
2026-05-04 14:03 49.80916 8.53912 8649 ft 235 kts 179°
2026-05-04 14:03 49.79288 8.53972 9312 ft 234 kts 180°
2026-05-04 14:03 49.77679 8.54032 9930 ft 235 kts 178°
2026-05-04 14:03 49.76008 8.54070 10173 ft 253 kts 183°
2026-05-04 14:04 49.72163 8.53514 10516 ft 298 kts 187°
2026-05-04 14:04 49.70039 8.53141 10714 ft 317 kts 186°
2026-05-04 14:04 49.67798 8.52776 11119 ft 327 kts 186°
2026-05-04 14:05 49.63202 8.52109 12364 ft 336 kts 185°
2026-05-04 14:05 49.60851 8.51806 13045 ft 340 kts 185°
2026-05-04 14:05 49.58484 8.51503 13694 ft 343 kts 185°
2026-05-04 14:06 49.56086 8.51216 14198 ft 349 kts 185°
2026-05-04 14:06 49.53644 8.50950 14732 ft 354 kts 185°
2026-05-04 14:06 49.51178 8.50629 15291 ft 357 kts 186°
2026-05-04 14:06 49.48727 8.50233 15878 ft 360 kts 187°
2026-05-04 14:07 49.46232 8.49765 16497 ft 362 kts 188°
2026-05-04 14:07 49.43726 8.49343 17141 ft 363 kts 186°
2026-05-04 14:07 49.41199 8.49045 17705 ft 365 kts 185°
2026-05-04 14:07 49.38654 8.48796 18242 ft 368 kts 185°
2026-05-04 14:08 49.36089 8.48545 18703 ft 371 kts 186°
2026-05-04 14:08 49.33512 8.48265 19162 ft 372 kts 186°
2026-05-04 14:08 49.30925 8.47891 19623 ft 373 kts 192°
2026-05-04 14:08 49.28447 8.46763 20068 ft 373 kts 200°
2026-05-04 14:09 49.23558 8.44135 20996 ft 377 kts 200°
2026-05-04 14:09 49.21080 8.42794 21439 ft 379 kts 200°
2026-05-04 14:10 49.16086 8.40090 22290 ft 383 kts 200°
2026-05-04 14:10 49.13568 8.38734 22723 ft 385 kts 200°
2026-05-04 14:10 49.11029 8.37374 23138 ft 388 kts 200°
2026-05-04 14:10 49.08474 8.36013 23543 ft 390 kts 200°
2026-05-04 14:11 49.05906 8.34644 23893 ft 392 kts 200°
2026-05-04 14:11 49.00729 8.31875 24617 ft 396 kts 200°
2026-05-04 14:11 48.98154 8.30499 24965 ft 398 kts 200°
2026-05-04 14:12 48.95540 8.29100 25323 ft 400 kts 200°
2026-05-04 14:12 48.92907 8.27690 25696 ft 401 kts 200°
2026-05-04 14:12 48.87618 8.24868 26423 ft 405 kts 200°
2026-05-04 14:13 48.84959 8.23453 26779 ft 406 kts 200°
2026-05-04 14:13 48.82285 8.22038 27132 ft 408 kts 200°
2026-05-04 14:13 48.79603 8.20619 27482 ft 409 kts 200°
2026-05-04 14:13 48.76912 8.19194 27828 ft 410 kts 200°
2026-05-04 14:14 48.74212 8.17766 28177 ft 412 kts 200°
2026-05-04 14:14 48.68816 8.14913 28907 ft 415 kts 200°
2026-05-04 14:14 48.66080 8.13466 29255 ft 417 kts 200°
2026-05-04 14:15 48.60587 8.10576 29928 ft 419 kts 200°
2026-05-04 14:15 48.55059 8.07677 30418 ft 421 kts 200°
2026-05-04 14:16 48.49530 8.04784 31024 ft 420 kts 200°
2026-05-04 14:16 48.46810 8.03361 31310 ft 420 kts 200°
2026-05-04 14:17 48.41292 8.00481 31885 ft 419 kts 200°
2026-05-04 14:17 48.38541 7.99047 32175 ft 418 kts 200°
2026-05-04 14:17 48.33047 7.96190 32741 ft 418 kts 200°
2026-05-04 14:18 48.30301 7.94764 33015 ft 417 kts 200°
2026-05-04 14:18 48.24823 7.91923 33568 ft 416 kts 201°
2026-05-04 14:19 48.19397 7.89115 34099 ft 415 kts 201°
2026-05-04 14:19 48.16668 7.87706 34338 ft 415 kts 201°
2026-05-04 14:19 48.13935 7.86298 34560 ft 415 kts 200°
2026-05-04 14:19 48.11207 7.84899 34779 ft 415 kts 200°
2026-05-04 14:20 48.08479 7.83499 34946 ft 415 kts 201°
2026-05-04 14:20 48.03053 7.80700 34994 ft 411 kts 201°
2026-05-04 14:21 47.94997 7.76568 34991 ft 409 kts 200°
2026-05-04 14:21 47.89613 7.73813 34990 ft 409 kts 200°
2026-05-04 14:22 47.84230 7.71064 34995 ft 409 kts 200°
2026-05-04 14:22 47.78848 7.68335 34993 ft 409 kts 200°
2026-05-04 14:23 47.70795 7.64261 35006 ft 410 kts 200°
2026-05-04 14:24 47.65391 7.61528 35014 ft 410 kts 200°
2026-05-04 14:24 47.60270 7.58938 35014 ft 410 kts 200°
2026-05-04 14:25 47.54945 7.56255 35016 ft 410 kts 200°
2026-05-04 14:25 47.48825 7.53185 35016 ft 410 kts 200°
2026-05-04 14:26 47.43423 7.50471 35017 ft 410 kts 200°
2026-05-04 14:26 47.38015 7.47765 35032 ft 410 kts 200°
2026-05-04 14:27 47.32618 7.45071 35037 ft 410 kts 200°
2026-05-04 14:27 47.27247 7.42393 35042 ft 410 kts 200°
2026-05-04 14:28 47.21845 7.39711 35037 ft 410 kts 200°
2026-05-04 14:28 47.16898 7.36237 35038 ft 407 kts 216°
2026-05-04 14:29 47.12903 7.30388 35038 ft 407 kts 230°
2026-05-04 14:29 47.08504 7.25341 35037 ft 406 kts 205°
2026-05-04 14:30 47.03351 7.22055 35029 ft 407 kts 204°
2026-05-04 14:31 46.95532 7.17172 35062 ft 407 kts 204°
2026-05-04 14:32 46.85083 7.10609 35076 ft 418 kts 204°
2026-05-04 14:32 46.79715 7.07241 35081 ft 426 kts 204°
2026-05-04 14:33 46.74243 7.03837 35074 ft 428 kts 204°
2026-05-04 14:33 46.68766 7.00433 35071 ft 428 kts 204°
2026-05-04 14:34 46.63303 6.97032 35067 ft 428 kts 204°
2026-05-04 14:34 46.57823 6.93624 35067 ft 429 kts 204°
2026-05-04 14:35 46.52374 6.90241 35062 ft 429 kts 204°
2026-05-04 14:35 46.46883 6.86853 35063 ft 429 kts 204°
2026-05-04 14:36 46.41482 6.83530 35069 ft 429 kts 204°
2026-05-04 14:36 46.35985 6.80152 35077 ft 429 kts 205°
2026-05-04 14:37 46.30523 6.76800 35081 ft 430 kts 205°
2026-05-04 14:37 46.25022 6.73440 35082 ft 429 kts 205°
2026-05-04 14:38 46.19529 6.70089 35081 ft 429 kts 204°
2026-05-04 14:38 46.14037 6.66744 35079 ft 429 kts 205°
2026-05-04 14:39 46.08542 6.63402 35084 ft 429 kts 205°
2026-05-04 14:39 46.03039 6.60062 35085 ft 429 kts 205°
2026-05-04 14:40 45.95965 6.55688 35080 ft 429 kts 205°
2026-05-04 14:40 45.90451 6.52393 35081 ft 429 kts 205°
2026-05-04 14:41 45.84935 6.49117 35082 ft 429 kts 205°
2026-05-04 14:42 45.73917 6.42510 35082 ft 429 kts 205°
2026-05-04 14:42 45.68448 6.39230 35077 ft 429 kts 205°
2026-05-04 14:43 45.62943 6.35946 35074 ft 429 kts 205°
2026-05-04 14:43 45.57446 6.32671 35082 ft 427 kts 205°
2026-05-04 14:44 45.51974 6.29416 35078 ft 424 kts 205°
2026-05-04 14:44 45.46559 6.26196 35081 ft 424 kts 205°
2026-05-04 14:45 45.41120 6.22974 35079 ft 423 kts 206°
2026-05-04 14:45 45.35677 6.19757 35082 ft 424 kts 206°
2026-05-04 14:46 45.30240 6.16549 35081 ft 423 kts 206°
2026-05-04 14:46 45.24811 6.13353 35083 ft 422 kts 206°
2026-05-04 14:47 45.19422 6.10183 35080 ft 422 kts 206°
2026-05-04 14:47 45.14002 6.07003 35082 ft 422 kts 206°
2026-05-04 14:48 45.08579 6.03832 35080 ft 422 kts 206°
2026-05-04 14:48 45.03163 6.00677 35080 ft 421 kts 206°
2026-05-04 14:49 44.97743 5.97524 35077 ft 421 kts 206°
2026-05-04 14:49 44.92365 5.94397 35068 ft 420 kts 206°
2026-05-04 14:50 44.86960 5.91263 35069 ft 420 kts 206°
2026-05-04 14:50 44.81556 5.88130 35050 ft 421 kts 206°
2026-05-04 14:51 44.76242 5.85046 35045 ft 421 kts 206°
2026-05-04 14:51 44.70845 5.81939 35046 ft 423 kts 206°
2026-05-04 14:52 44.65395 5.78809 35058 ft 423 kts 206°
2026-05-04 14:52 44.59941 5.75684 35063 ft 423 kts 206°
2026-05-04 14:53 44.54496 5.72560 35060 ft 422 kts 206°
2026-05-04 14:53 44.49096 5.69464 35062 ft 422 kts 206°
2026-05-04 14:54 44.43657 5.66361 35063 ft 422 kts 206°
2026-05-04 14:54 44.38219 5.63263 35064 ft 422 kts 206°
2026-05-04 14:55 44.32784 5.60176 35063 ft 421 kts 206°
2026-05-04 14:55 44.27365 5.57098 35060 ft 420 kts 206°
2026-05-04 14:56 44.21993 5.54049 35056 ft 419 kts 206°
2026-05-04 14:56 44.16589 5.50998 35057 ft 419 kts 206°
2026-05-04 14:57 44.11185 5.47952 35058 ft 418 kts 206°
2026-05-04 14:57 44.05794 5.44914 35052 ft 418 kts 206°
2026-05-04 14:58 44.00447 5.41908 35049 ft 417 kts 206°
2026-05-04 14:58 43.95053 5.38906 35048 ft 418 kts 205°
2026-05-04 14:59 43.89638 5.35983 35047 ft 418 kts 205°
2026-05-04 15:00 43.81514 5.31626 35036 ft 417 kts 205°
2026-05-04 15:00 43.76139 5.28733 35030 ft 416 kts 205°
2026-05-04 15:01 43.68051 5.24379 35028 ft 416 kts 205°
2026-05-04 15:01 43.62652 5.21485 35024 ft 416 kts 205°
2026-05-04 15:02 43.57295 5.18626 35024 ft 415 kts 205°
2026-05-04 15:02 43.51911 5.15749 35027 ft 415 kts 205°
2026-05-04 15:03 43.46525 5.12877 35029 ft 415 kts 205°
2026-05-04 15:03 43.41149 5.10015 35022 ft 414 kts 205°
2026-05-04 15:04 43.36121 5.06340 35031 ft 408 kts 217°
2026-05-04 15:04 43.31477 5.01953 35020 ft 408 kts 217°
2026-05-04 15:05 43.26802 4.97542 35009 ft 408 kts 217°
2026-05-04 15:05 43.22123 4.93139 35000 ft 408 kts 217°
2026-05-04 15:06 43.17449 4.88751 34993 ft 407 kts 217°
2026-05-04 15:07 43.10464 4.82228 34984 ft 406 kts 217°
2026-05-04 15:07 43.05793 4.77873 34974 ft 407 kts 215°
2026-05-04 15:08 43.00850 4.74067 34977 ft 408 kts 212°
2026-05-04 15:08 42.95882 4.70310 34977 ft 408 kts 212°
2026-05-04 15:09 42.90957 4.66586 34969 ft 407 kts 212°
2026-05-04 15:09 42.86002 4.62835 34970 ft 407 kts 212°
2026-05-04 15:10 42.78575 4.57222 34962 ft 407 kts 212°
2026-05-04 15:11 42.71144 4.51642 34960 ft 407 kts 212°
2026-05-04 15:11 42.66221 4.47946 34960 ft 407 kts 212°
2026-05-04 15:12 42.61260 4.44235 34953 ft 406 kts 212°
2026-05-04 15:12 42.56117 4.41024 34947 ft 411 kts 204°
2026-05-04 15:13 42.50722 4.38459 34949 ft 411 kts 204°
2026-05-04 15:13 42.45362 4.35916 34952 ft 411 kts 204°
2026-05-04 15:14 42.39962 4.33364 34951 ft 411 kts 204°
2026-05-04 15:14 42.34560 4.30819 34952 ft 411 kts 204°
2026-05-04 15:15 42.29156 4.28275 34954 ft 411 kts 204°
2026-05-04 15:15 42.23787 4.25754 34955 ft 411 kts 204°
2026-05-04 15:16 42.15687 4.21950 34958 ft 411 kts 204°
2026-05-04 15:17 42.07592 4.18165 34955 ft 410 kts 204°
2026-05-04 15:17 41.99510 4.14398 34956 ft 409 kts 204°
2026-05-04 15:18 41.94168 4.11912 34956 ft 409 kts 204°
2026-05-04 15:19 41.86112 4.08183 34950 ft 408 kts 204°
2026-05-04 15:19 41.78073 4.04446 34948 ft 407 kts 204°
2026-05-04 15:20 41.72725 4.01964 34948 ft 407 kts 204°
2026-05-04 15:20 41.67376 3.99496 34941 ft 407 kts 204°
2026-05-04 15:21 41.62066 3.97052 34946 ft 406 kts 204°
2026-05-04 15:22 41.54044 3.93355 34945 ft 406 kts 203°
2026-05-04 15:22 41.46021 3.89689 34951 ft 406 kts 203°
2026-05-04 15:23 41.40687 3.87248 34943 ft 406 kts 203°
2026-05-04 15:23 41.35334 3.84802 34943 ft 406 kts 203°
2026-05-04 15:24 41.24635 3.79935 34948 ft 406 kts 203°
2026-05-04 15:25 41.19283 3.77501 34954 ft 406 kts 203°
2026-05-04 15:26 41.11377 3.73788 34919 ft 391 kts 205°
2026-05-04 15:26 41.03958 3.69884 34166 ft 379 kts 206°
2026-05-04 15:27 41.01507 3.68589 33486 ft 379 kts 206°
2026-05-04 15:27 40.96574 3.66025 32020 ft 381 kts 205°
2026-05-04 15:28 40.91688 3.63525 30915 ft 376 kts 205°
2026-05-04 15:28 40.89258 3.62289 30364 ft 373 kts 205°
2026-05-04 15:28 40.84452 3.59838 29149 ft 367 kts 205°
2026-05-04 15:29 40.82080 3.58624 28525 ft 365 kts 205°
2026-05-04 15:30 40.72733 3.53835 26112 ft 356 kts 205°
2026-05-04 15:30 40.65865 3.50346 24448 ft 352 kts 206°
2026-05-04 15:31 40.61312 3.48028 23363 ft 350 kts 206°
2026-05-04 15:31 40.59046 3.46874 22738 ft 348 kts 206°
2026-05-04 15:32 40.52315 3.43458 21013 ft 343 kts 205°
2026-05-04 15:32 40.47877 3.41226 19885 ft 340 kts 205°
2026-05-04 15:33 40.43388 3.39474 18804 ft 342 kts 191°
2026-05-04 15:34 40.36219 3.39687 17144 ft 341 kts 181°
2026-05-04 15:34 40.33859 3.39937 16604 ft 342 kts 172°
2026-05-04 15:34 40.29749 3.43060 15575 ft 350 kts 142°
2026-05-04 15:35 40.25517 3.45014 14919 ft 322 kts 193°
2026-05-04 15:35 40.23405 3.44100 14927 ft 320 kts 208°
2026-05-04 15:35 40.21493 3.42684 14880 ft 319 kts 212°
2026-05-04 15:36 40.17598 3.39998 13896 ft 315 kts 208°
2026-05-04 15:36 40.15639 3.38728 13365 ft 313 kts 208°
2026-05-04 15:36 40.13702 3.37468 12833 ft 310 kts 208°
2026-05-04 15:37 40.11783 3.36203 12296 ft 308 kts 209°
2026-05-04 15:37 40.09884 3.34936 11784 ft 305 kts 209°
2026-05-04 15:37 40.08002 3.33674 11276 ft 303 kts 209°
2026-05-04 15:37 40.06137 3.32421 10799 ft 301 kts 209°
2026-05-04 15:38 40.04284 3.31172 10315 ft 299 kts 209°
2026-05-04 15:38 40.02470 3.29947 9857 ft 296 kts 209°
2026-05-04 15:38 40.00704 3.28758 9647 ft 275 kts 209°
2026-05-04 15:38 39.99041 3.27642 8993 ft 265 kts 209°
2026-05-04 15:39 39.97447 3.26570 8485 ft 255 kts 209°
2026-05-04 15:39 39.95878 3.25512 8141 ft 253 kts 209°
2026-05-04 15:39 39.92778 3.23424 7445 ft 250 kts 209°
2026-05-04 15:40 39.91241 3.22388 7099 ft 248 kts 209°
2026-05-04 15:40 39.90226 3.21704 6873 ft 248 kts 209°
2026-05-04 15:40 39.88698 3.20679 6521 ft 247 kts 208°
2026-05-04 15:40 39.86647 3.19307 5856 ft 253 kts 208°
2026-05-04 15:41 39.85071 3.18252 5355 ft 257 kts 209°
2026-05-04 15:41 39.83510 3.17208 5209 ft 247 kts 208°
2026-05-04 15:41 39.82020 3.16212 5087 ft 235 kts 208°
2026-05-04 15:41 39.80598 3.15264 4986 ft 224 kts 209°
2026-05-04 15:42 39.79232 3.14351 4966 ft 220 kts 209°
2026-05-04 15:42 39.78328 3.13746 4967 ft 221 kts 209°
2026-05-04 15:42 39.76961 3.12830 4967 ft 221 kts 209°
2026-05-04 15:42 39.75150 3.11614 4970 ft 221 kts 209°
2026-05-04 15:43 39.73784 3.10699 4974 ft 221 kts 209°
2026-05-04 15:43 39.72424 3.09789 4972 ft 220 kts 209°
2026-05-04 15:43 39.71555 3.09109 4972 ft 220 kts 218°
2026-05-04 15:43 39.70463 3.07724 4982 ft 220 kts 232°
2026-05-04 15:44 39.69604 3.06091 4979 ft 219 kts 237°
2026-05-04 15:44 39.68808 3.04401 4890 ft 219 kts 238°
2026-05-04 15:44 39.68023 3.02717 4651 ft 217 kts 238°
2026-05-04 15:44 39.66985 3.00499 4311 ft 216 kts 237°
2026-05-04 15:45 39.66208 2.98841 4001 ft 212 kts 238°
2026-05-04 15:45 39.65696 2.97750 3821 ft 207 kts 237°
2026-05-04 15:45 39.64974 2.96209 3552 ft 195 kts 238°
2026-05-04 15:45 39.64295 2.94763 3302 ft 180 kts 238°
2026-05-04 15:46 39.63669 2.93430 3094 ft 166 kts 237°
2026-05-04 15:46 39.63089 2.92195 2903 ft 151 kts 237°
2026-05-04 15:46 39.62575 2.91101 2690 ft 135 kts 238°
2026-05-04 15:46 39.62095 2.90081 2512 ft 131 kts 237°
2026-05-04 15:47 39.61620 2.89071 2347 ft 130 kts 239°
2026-05-04 15:47 39.61158 2.88090 2169 ft 128 kts 239°
2026-05-04 15:47 39.60694 2.87104 2007 ft 128 kts 238°
2026-05-04 15:47 39.60238 2.86134 1837 ft 128 kts 237°
2026-05-04 15:48 39.59774 2.85148 1673 ft 128 kts 237°
2026-05-04 15:48 39.59310 2.84162 1491 ft 129 kts 238°
2026-05-04 15:48 39.58371 2.82170 1143 ft 128 kts 235°
2026-05-04 15:49 39.57910 2.81191 972 ft 127 kts 237°
2026-05-04 15:49 39.57449 2.80214 789 ft 127 kts 236°
2026-05-04 15:49 39.56990 2.79238 609 ft 126 kts 237°
2026-05-04 15:49 39.56550 2.78286 419 ft 124 kts 237°
2026-05-04 15:50 39.56105 2.77328 247 ft 125 kts 236°
2026-05-04 15:50 39.55636 2.76362 112 ft 128 kts 237°
2026-05-04 15:50 39.55187 2.75407 30 ft 111 kts 236°
2026-05-04 15:50 39.54914 2.74834 30 ft 41 kts 239°
2026-05-04 15:51 39.54821 2.74554 30 ft 32 kts 256°
2026-05-04 15:51 39.54805 2.74352 30 ft 0 kts 268°
2026-05-04 15:51 39.54805 2.74350 30 ft 1 kts 268°
2026-05-04 15:52 39.54804 2.74335 30 ft 0 kts 269°
2026-05-04 15:53 39.54804 2.74329 30 ft 3 kts 269°
2026-05-04 15:53 39.54803 2.74261 30 ft 10 kts 268°
2026-05-04 15:53 39.54795 2.74163 30 ft 12 kts 253°
2026-05-04 15:54 39.54759 2.74062 30 ft 13 kts 240°
2026-05-04 15:54 39.54760 2.73958 30 ft 13 kts 332°
2026-05-04 15:54 39.54838 2.73992 30 ft 8 kts 346°
2026-05-04 15:54 39.54848 2.73953 30 ft 5 kts 275°
2026-05-04 15:55 39.54848 2.73897 30 ft 7 kts 269°
2026-05-04 15:55 39.54848 2.73861 30 ft 0 kts 268°